Andrews, TX

8:02 AM CST on December 08, 2019 (GMT -0600)
Andrews

Weather History for KE11 - October, 2019

Change the Weather History Date:

Wednesday, October 9, 2019

  Actual Average (KMAF) Record (KMAF)
Temperature  
Mean Temperature 75 °F -  
Max Temperature 88 °F 77 °F 92 °F (1965)
Min Temperature 62 °F 53 °F 36 °F (1970)
Cooling Degree Days 10    
Growing Degree Days 25 (Base 50)    
Moisture  
Dew Point 54 °F    
Average Humidity 51    
Maximum Humidity 82    
Minimum Humidity 24    
Precipitation  
Precipitation 0.00 in - - ()
Sea Level Pressure  
Sea Level Pressure 29.87 in    
Wind  
Wind Speed 9 mph ()    
Max Wind Speed 22 mph    
Max Gust Speed 31 mph    
Visibility 10.0 miles    
Events      
Averages and records for this station are not official NWS values.
T = Trace of Precipitation, MM = Missing Value Source: Averaged Metar Reports

Daily Weather History Graph

Daily Weather History Graph

Search for Another Location

Airport or City:

Astronomy

Oct. 09, 2019 Rise Set
Actual Time 7:49 AM CDT 7:24 PM CDT
Civil Twilight 7:24 AM CDT 7:49 PM CDT
Nautical Twilight 6:56 AM CDT 8:17 PM CDT
Astronomical Twilight 6:27 AM CDT 8:46 PM CDT
Moon 5:40 PM CDT (10/9) 3:57 AM CDT (10/9)
Length of Visible Light 12h 24m
Length of Day
11h 35m
Waxing Gibbous, 85% of the Moon is Illuminated
Oct 9
Waxing Gibbous
Oct 13
Full
Oct 21
Last Quarter
Oct 27
New
Nov 4
First Quarter

Hourly Weather History & Observations

Time (CDT) Temp. Heat Index Dew Point Humidity Pressure Visibility Wind Dir Wind Speed Gust Speed Precip Events Conditions
12:15 AM 71.1 °F - 54.5 °F 56% 29.97 in 10.0 mi SSW 13.8 mph 21.9 mph N/A   Scattered Clouds
12:35 AM 71.1 °F - 54.7 °F 56% 29.96 in 10.0 mi SSW 11.5 mph 17.3 mph N/A   Clear
12:55 AM 70.7 °F - 54.7 °F 57% 29.94 in 10.0 mi SSW 9.2 mph 16.1 mph N/A   Clear
1:15 AM 70.2 °F - 54.7 °F 58% 29.94 in 10.0 mi SSW 10.4 mph - N/A   Clear
1:35 AM 69.8 °F - 55.4 °F 60% 29.93 in 10.0 mi South 8.1 mph - N/A   Clear
1:55 AM 69.8 °F - 55.4 °F 60% 29.92 in 10.0 mi South 10.4 mph - N/A   Clear
2:15 AM 69.8 °F - 55.6 °F 61% 29.92 in 10.0 mi South 10.4 mph - N/A   Clear
2:35 AM 69.1 °F - 55.4 °F 62% 29.92 in 10.0 mi South 12.7 mph 17.3 mph N/A   Clear
2:55 AM 67.6 °F - 55.6 °F 65% 29.92 in 10.0 mi SSW 9.2 mph - N/A   Clear
3:15 AM 67.1 °F - 55.8 °F 67% 29.92 in 10.0 mi South 6.9 mph - N/A   Clear
3:35 AM 66.2 °F - 55.6 °F 69% 29.92 in 10.0 mi South 5.8 mph - N/A   Clear
3:55 AM 65.7 °F - 55.8 °F 70% 29.91 in 10.0 mi South 5.8 mph - N/A   Clear
4:15 AM 65.7 °F - 55.9 °F 71% 29.92 in 10.0 mi Calm Calm - N/A   Clear
4:35 AM 65.8 °F - 56.3 °F 71% 29.91 in 10.0 mi SSW 3.5 mph - N/A   Clear
4:55 AM 65.3 °F - 56.3 °F 73% 29.92 in 10.0 mi Calm Calm - N/A   Clear
5:15 AM 62.8 °F - 56.7 °F 80% 29.93 in 10.0 mi West 4.6 mph - N/A   Clear
5:35 AM 63.7 °F - 56.3 °F 77% 29.93 in 10.0 mi West 3.5 mph - N/A   Clear
5:55 AM 63.0 °F - 56.3 °F 79% 29.92 in 10.0 mi Calm Calm - N/A   Clear
6:15 AM 62.4 °F - 57.0 °F 82% 29.92 in 10.0 mi SSE 3.5 mph - N/A   Clear
6:35 AM 62.6 °F - 57.2 °F 82% 29.91 in 10.0 mi SSE 4.6 mph - N/A   Scattered Clouds
6:55 AM 62.8 °F - 57.2 °F 82% 29.91 in 10.0 mi Calm Calm - N/A   Scattered Clouds
7:15 AM 62.8 °F - 57.4 °F 82% 29.91 in 10.0 mi South 4.6 mph - N/A   Clear
7:35 AM 64.6 °F - 57.0 °F 76% 29.91 in 10.0 mi South 4.6 mph - N/A   Scattered Clouds
7:55 AM 66.2 °F - 57.2 °F 73% 29.90 in 10.0 mi South 6.9 mph - N/A   Mostly Cloudy
8:15 AM 66.2 °F - 57.7 °F 74% 29.91 in 10.0 mi SSW 10.4 mph - N/A   Scattered Clouds
8:35 AM 66.6 °F - 57.6 °F 73% 29.91 in 10.0 mi SSW 9.2 mph - N/A   Clear
8:55 AM 67.1 °F - 57.4 °F 71% 29.91 in 10.0 mi SSW 10.4 mph 16.1 mph N/A   Clear
9:15 AM 67.1 °F - 57.4 °F 71% 29.92 in 10.0 mi SSW 9.2 mph - N/A   Clear
9:35 AM 69.6 °F - 57.9 °F 66% 29.92 in 10.0 mi SSW 12.7 mph - N/A   Clear
9:55 AM 71.4 °F - 57.6 °F 62% 29.92 in 10.0 mi SSW 13.8 mph - N/A   Clear
10:15 AM 73.6 °F - 57.9 °F 58% 29.92 in 10.0 mi SSW 12.7 mph 18.4 mph N/A   Clear
10:35 AM 75.9 °F - 58.1 °F 54% 29.92 in 10.0 mi SSW 12.7 mph 18.4 mph N/A   Clear
10:55 AM 77.2 °F - 57.6 °F 51% 29.92 in 10.0 mi SSW 13.8 mph 18.4 mph N/A   Clear
11:15 AM 78.8 °F - 57.4 °F 48% 29.92 in 10.0 mi SW 12.7 mph 19.6 mph N/A   Clear
11:35 AM 79.3 °F - 57.6 °F 47% 29.92 in 10.0 mi SSW 11.5 mph 19.6 mph N/A   Clear
11:55 AM 81.3 °F 81.3 °F 57.7 °F 44% 29.91 in 10.0 mi SW 13.8 mph 17.3 mph N/A   Clear
12:15 PM 82.2 °F 81.9 °F 56.8 °F 42% 29.91 in 10.0 mi SW 15.0 mph 21.9 mph N/A   Clear
12:35 PM 83.3 °F 82.6 °F 56.8 °F 40% 29.90 in 10.0 mi WSW 15.0 mph 24.2 mph N/A   Clear
12:55 PM 84.2 °F 83.3 °F 56.5 °F 39% 29.89 in 10.0 mi WSW 10.4 mph 20.7 mph N/A   Clear
1:15 PM 84.7 °F 83.6 °F 56.1 °F 37% 29.88 in 10.0 mi SW 13.8 mph 23.0 mph N/A   Clear
1:35 PM 86.2 °F 84.9 °F 56.5 °F 36% 29.87 in 10.0 mi SW 15.0 mph 18.4 mph N/A   Clear
1:55 PM 86.4 °F 84.7 °F 54.9 °F 34% 29.85 in 10.0 mi West 15.0 mph 20.7 mph N/A   Clear
2:15 PM 86.9 °F - 52.9 °F 31% 29.84 in 10.0 mi WSW 13.8 mph 24.2 mph N/A   Clear
2:35 PM 87.3 °F - 52.3 °F 30% 29.82 in 10.0 mi WSW 18.4 mph 26.5 mph N/A   Clear
2:55 PM 87.8 °F - 50.9 °F 28% 29.81 in 10.0 mi WSW 21.9 mph 27.6 mph N/A   Clear
3:15 PM 88.2 °F - 48.2 °F 25% 29.81 in 10.0 mi SW 18.4 mph 27.6 mph N/A   Clear
3:35 PM 87.8 °F - 48.2 °F 25% 29.80 in 10.0 mi WSW 19.6 mph 31.1 mph N/A   Clear
3:55 PM 88.0 °F - 51.4 °F 28% 29.80 in 10.0 mi WSW 16.1 mph 21.9 mph N/A   Scattered Clouds
4:15 PM 88.2 °F - 47.3 °F 24% 29.79 in 10.0 mi WSW 18.4 mph 29.9 mph N/A   Scattered Clouds
4:35 PM 88.0 °F - 48.9 °F 26% 29.79 in 10.0 mi WSW 17.3 mph 29.9 mph N/A   Clear
5:15 PM 87.4 °F - 49.1 °F 27% 29.79 in 10.0 mi WSW 15.0 mph 25.3 mph N/A   Clear
5:35 PM 87.1 °F - 48.9 °F 27% 29.78 in 10.0 mi SW 15.0 mph 27.6 mph N/A   Clear
5:55 PM 86.5 °F - 50.2 °F 28% 29.78 in 10.0 mi WSW 13.8 mph 23.0 mph N/A   Clear
6:15 PM 86.0 °F - 50.2 °F 29% 29.78 in 10.0 mi WSW 12.7 mph 25.3 mph N/A   Clear
6:35 PM 85.3 °F - 51.6 °F 31% 29.78 in 10.0 mi West 12.7 mph 20.7 mph N/A   Clear
6:55 PM 84.0 °F - 51.8 °F 33% 29.78 in 10.0 mi West 10.4 mph - N/A   Clear
7:15 PM 82.4 °F - 51.8 °F 35% 29.78 in 10.0 mi WSW 9.2 mph 16.1 mph N/A   Clear
7:35 PM 80.6 °F - 52.2 °F 37% 29.79 in 10.0 mi West 6.9 mph - N/A   Clear
7:55 PM 79.7 °F - 52.3 °F 39% 29.79 in 10.0 mi West 8.1 mph - N/A   Clear
8:15 PM 79.3 °F - 52.0 °F 38% 29.79 in 10.0 mi West 8.1 mph - N/A   Clear
8:35 PM 78.3 °F - 52.2 °F 40% 29.80 in 10.0 mi West 6.9 mph - N/A   Clear
8:55 PM 75.9 °F - 52.7 °F 44% 29.80 in 10.0 mi West 6.9 mph - N/A   Clear
9:10 PM 75.9 °F - 51.6 °F 43% 29.80 in 10.0 mi West 11.5 mph 16.1 mph N/A   Clear
9:35 PM 77.9 °F - 48.2 °F 35% 29.81 in 10.0 mi West 11.5 mph - N/A   Clear
9:55 PM 77.2 °F - 47.7 °F 35% 29.82 in 10.0 mi West 8.1 mph - N/A   Scattered Clouds
10:15 PM 72.7 °F - 49.1 °F 43% 29.82 in 10.0 mi SSW 3.5 mph - N/A   Mostly Cloudy
10:35 PM 75.0 °F - 48.0 °F 38% 29.83 in 10.0 mi South 8.1 mph - N/A   Mostly Cloudy
10:55 PM 73.2 °F - 49.1 °F 42% 29.83 in 10.0 mi South 5.8 mph - N/A   Mostly Cloudy
11:15 PM 73.0 °F - 49.5 °F 43% 29.84 in 10.0 mi South 5.8 mph - N/A   Mostly Cloudy
11:35 PM 72.9 °F - 51.1 °F 46% 29.84 in 10.0 mi SW 5.8 mph - N/A   Mostly Cloudy
11:55 PM 72.9 °F - 55.9 °F 55% 29.84 in 10.0 mi SSW 9.2 mph - N/A   Mostly Cloudy